Change the Weather History Date:

Friday, October 5, 2012

  Actual Average Record
Temperature  
Mean Temperature 60 °F -  
Max Temperature 71 °F 58 °F 75 °F (2004)
Min Temperature 48 °F 44 °F 35 °F (2008)
Degree Days  
Heating Degree Days 6    
Growing Degree Days 10 (Base 50)    
Moisture  
Dew Point 53 °F    
Average Humidity 83    
Maximum Humidity 100    
Minimum Humidity 56    
Precipitation  
Precipitation 0.00 in - - ()
Sea Level Pressure  
Sea Level Pressure 30.09 in    
Wind  
Wind Speed 2 mph ()    
Max Wind Speed 7 mph    
Max Gust Speed -    
Visibility 4.8 miles    
Events Fog    
Averages and records for this station are not official NWS values.
T = Trace of Precipitation, MM = Missing Value Source: Averaged Metar Reports

Daily Weather History Graph

Daily Weather History Graph

Search for Another Location

Airport or City:

Trip Planner

Search our weather history database for the weather conditions in past years. The results will help you decide how hot, cold, wet, or windy it might be!

Date:

Astronomy

Oct. 05, 2012 Rise Set
Actual Time 7:40 AM CEST 7:08 PM CEST
Civil Twilight 7:10 AM CEST 7:38 PM CEST
Nautical Twilight 6:36 AM CEST 8:12 PM CEST
Astronomical Twilight 6:01 AM CEST 8:47 PM CEST
Moon 10:04 PM CEST (10/5) 12:49 PM CEST (10/5)
Length of Visible Light 12h 27m
Length of Day
11h 28m
Waning Gibbous, 76% of the Moon is Illuminated
Oct 5
Waning Gibbous
Oct 8
Last Quarter
Oct 15
New
Oct 22
First Quarter
Oct 29
Full

Hourly Weather History & Observations

Time (CEST) Temp. Dew Point Humidity Pressure Visibility Wind Dir Wind Speed Gust Speed Precip Events Conditions
12:00 AM 55.4 °F 55.4 °F 100% 30.09 in 0.9 mi Variable 2.3 mph - N/A Fog Patches of Fog
12:30 AM 55.4 °F 53.6 °F 94% 30.09 in 1.6 mi South 3.5 mph - N/A Fog Patches of Fog
1:00 AM 55.4 °F 53.6 °F 94% 30.09 in 0.5 mi South 3.5 mph - N/A Fog Fog
1:30 AM 53.6 °F 51.8 °F 94% 30.09 in 3.7 mi South 3.5 mph - N/A   Unknown
2:00 AM 53.6 °F 53.6 °F 100% 30.09 in 4.3 mi South 5.8 mph - N/A   Scattered Clouds
2:30 AM 53.6 °F 51.8 °F 94% 30.09 in 5.0 mi Calm Calm - N/A   Unknown
3:00 AM 51.8 °F 51.8 °F 100% 30.09 in 3.7 mi SSE 3.5 mph - N/A   Unknown
3:30 AM 51.8 °F 51.8 °F 100% 30.09 in 5.6 mi SSE 4.6 mph - N/A   Unknown
4:00 AM 53.6 °F 51.8 °F 94% 30.09 in 6.2 mi SE 4.6 mph - N/A   Unknown
4:30 AM 51.8 °F 50.0 °F 94% 30.09 in 0.3 mi Variable 1.2 mph - N/A Fog Fog
5:00 AM 51.8 °F 51.8 °F 100% 30.09 in 5.0 mi Calm Calm - N/A   Unknown
5:30 AM 51.8 °F 50.0 °F 94% 30.09 in - Calm Calm - N/A   Mist
6:00 AM 50.0 °F 48.2 °F 94% 30.09 in 5.0 mi South 2.3 mph - N/A Fog Shallow Fog
6:30 AM 48.2 °F 48.2 °F 100% 30.09 in 5.0 mi SSE 3.5 mph - N/A Fog Fog
7:00 AM 50.0 °F 50.0 °F 100% 30.09 in 6.2 mi South 2.3 mph - N/A Fog Shallow Fog
7:30 AM 50.0 °F 48.2 °F 94% 30.09 in 6.2 mi Calm Calm - N/A Fog Shallow Fog
8:00 AM 48.2 °F 48.2 °F 100% 30.09 in 6.2 mi Calm Calm - N/A Fog Shallow Fog
8:30 AM 50.0 °F 48.2 °F 94% 30.12 in 6.2 mi Calm Calm - N/A Fog Shallow Fog
9:00 AM 51.8 °F 50.0 °F 94% 30.12 in 6.2 mi SSE 2.3 mph - N/A   Scattered Clouds
9:30 AM 55.4 °F 53.6 °F 94% 30.12 in 6.2 mi Calm Calm - N/A   Partly Cloudy
10:00 AM 57.2 °F 53.6 °F 88% 30.12 in 6.2 mi Variable 2.3 mph - N/A   Partly Cloudy
10:30 AM 60.8 °F 53.6 °F 77% 30.12 in 6.2 mi Calm Calm - N/A   Partly Cloudy
11:00 AM 62.6 °F 51.8 °F 68% 30.12 in - South 4.6 mph - N/A   Clear
11:30 AM 66.2 °F 53.6 °F 64% 30.12 in - Calm Calm - N/A   Clear
12:00 PM 66.2 °F 51.8 °F 60% 30.12 in - Variable 1.2 mph - N/A   Clear
12:30 PM 68.0 °F 53.6 °F 60% 30.12 in - Variable 2.3 mph - N/A   Clear
1:00 PM 69.8 °F 53.6 °F 56% 30.12 in - Variable 2.3 mph - N/A   Clear
1:30 PM 69.8 °F 55.4 °F 60% 30.09 in - North 3.5 mph - N/A   Clear
2:00 PM 69.8 °F 55.4 °F 60% 30.09 in - North 5.8 mph - N/A   Clear
2:30 PM 68.0 °F 55.4 °F 64% 30.09 in - North 5.8 mph - N/A   Clear
3:00 PM 69.8 °F 55.4 °F 60% 30.06 in - North 6.9 mph - N/A   Clear
3:30 PM 69.8 °F 53.6 °F 56% 30.06 in - North 6.9 mph - N/A   Clear
4:00 PM 71.6 °F 55.4 °F 57% 30.06 in - North 4.6 mph - N/A   Clear
4:30 PM 71.6 °F 57.2 °F 60% 30.06 in - North 3.5 mph - N/A   Clear
5:00 PM 69.8 °F 59.0 °F 68% 30.06 in - North 4.6 mph - N/A   Clear
5:30 PM 69.8 °F 59.0 °F 68% 30.06 in - North 3.5 mph - N/A   Clear
6:00 PM 71.6 °F 55.4 °F 57% 30.06 in - Calm Calm - N/A   Clear
6:30 PM 64.4 °F 57.2 °F 77% 30.06 in 6.2 mi Calm Calm - N/A   Unknown
7:00 PM 60.8 °F 55.4 °F 82% 30.06 in 1.5 mi Calm Calm - N/A   Mist
7:30 PM 60.8 °F 55.4 °F 82% 30.06 in - Calm Calm - N/A   Mist
8:00 PM 59.0 °F 55.4 °F 88% 30.06 in 6.2 mi Calm Calm - N/A   Unknown
8:30 PM 57.2 °F 53.6 °F 88% 30.06 in 6.2 mi South 3.5 mph - N/A   Unknown
9:00 PM 57.2 °F 55.4 °F 94% 30.09 in 6.2 mi Variable 3.5 mph - N/A   Unknown
9:30 PM 57.2 °F 53.6 °F 88% 30.09 in 6.2 mi Variable 2.3 mph - N/A   Unknown
10:00 PM 55.4 °F 53.6 °F 94% 30.09 in 6.2 mi Calm Calm - N/A   Unknown
10:30 PM 55.4 °F 53.6 °F 94% 30.12 in 6.2 mi SSE 1.2 mph - N/A   Unknown
11:00 PM 53.6 °F 53.6 °F 100% 30.12 in 6.2 mi Calm Calm - N/A   Unknown
11:30 PM 53.6 °F 51.8 °F 94% 30.12 in 0.7 mi SSW 2.3 mph - N/A   Mist